This is the latest recevied weather packets stored in our database for station/object KC5AV. If no packets are shown the sender has not sent any weather packets the latest 10 day(s).
| Time | Temp. | Humidity | Pressure | Rain* | Wind** | Luminosity | Snow |
|---|---|---|---|---|---|---|---|
| 1787488824 | 25° C | 88% | 1017.6 hPa | 0 mm | - | 46 W/m² | - |
| 1787488520 | 25° C | 87% | 1017.6 hPa | 0 mm | - | 36 W/m² | - |
| 1787488216 | 25° C | 88% | 1017.5 hPa | 0 mm | - | 29 W/m² | - |
| 1787487913 | 25° C | 87% | 1017.8 hPa | 0 mm | - | 27 W/m² | - |
| 1787487609 | 25° C | 87% | 1017.8 hPa | 0 mm | - | 24 W/m² | - |
| 1787487305 | 25° C | 87% | 1017.7 hPa | 0 mm | - | 19 W/m² | - |
| 1787487003 | 25° C | 89% | 1017.5 hPa | 0 mm | - | 16 W/m² | - |
| 1787486702 | 25° C | 90% | 1017.7 hPa | 0 mm | - | 12 W/m² | - |
| 1787486401 | 25° C | 89% | 1017.3 hPa | 0 mm | - | 9 W/m² | - |
| 1787486096 | 25° C | 89% | 1017.2 hPa | 0 mm | - | 6 W/m² | - |
| 1787485791 | 25° C | 90% | 1017.1 hPa | 0 mm | - | 3 W/m² | - |
| 1787485488 | 25° C | 90% | 1017.2 hPa | 0 mm | - | 2 W/m² | - |
| 1787485182 | 25° C | 90% | 1017.1 hPa | 0 mm | - | 1 W/m² | - |
| 1787484878 | 25° C | 91% | 1017.1 hPa | 0 mm | - | 0 W/m² | - |
| 1787484574 | 24.44° C | 90% | 1017.2 hPa | 0 mm | - | 0 W/m² | - |
| 1787484270 | 25° C | 90% | 1017.3 hPa | 0 mm | - | 0 W/m² | - |
| 1787483966 | 25° C | 90% | 1017.1 hPa | 0 mm | - | 0 W/m² | - |
| 1787483662 | 25° C | 89% | 1016.6 hPa | 0 mm | - | 0 W/m² | - |
| 1787483359 | 25° C | 88% | 1016.7 hPa | 0 mm | - | 0 W/m² | - |
| 1787483055 | 25° C | 87% | 1016.6 hPa | 0 mm | - | 0 W/m² | - |
| 1787482750 | 25° C | 87% | 1016.3 hPa | 0 mm | - | 0 W/m² | - |
| 1787482447 | 25° C | 87% | 1016.5 hPa | 0 mm | - | 0 W/m² | - |
| 1787482143 | 25° C | 87% | 1016.5 hPa | 0 mm | - | 0 W/m² | - |
| 1787481842 | 25° C | 86% | 1016.4 hPa | 0 mm | - | 0 W/m² | - |
| 1787481542 | 25° C | 86% | 1016.6 hPa | 0 mm | - | 0 W/m² | - |
* Rain latest hour (hover to see other rain measurements)
** Current wind speed in m/s (hover to see current wind gust speed)